Total_Precipitation_Accumulation
2.13 2.45 2.79 3.08 3.57 3.60 3.47 3.54 3.71 3.93 4.04 4.33 4.43 4.69 5.08 5.32 5.46 5.46 5.31 5.34 5.22 5.30 5.36 5.15 4.99 4.86 4.82 4.72 4.65 4.47 4.25 3.99 3.87 3.78 3.39 2.86 2.59 2.54 2.45 2.45 2.51 2.57 2.62
2.47 2.68 2.83 3.22 3.68 3.85 3.85 3.87 4.04 4.38 4.62 4.89 5.32 5.64 6.00 6.27 6.43 6.44 5.99 5.74 5.58 5.47 5.38 5.44 5.36 5.17 5.02 4.83 4.62 4.52 4.32 3.98 3.90 3.88 3.75 3.26 2.88 2.48 2.12 2.12 2.16 2.27 2.47
2.65 2.75 2.81 3.18 3.51 3.73 3.86 4.00 4.25 4.70 5.25 5.64 6.08 6.49 6.71 6.76 6.58 6.29 6.16 5.96 5.79 5.64 5.44 5.33 5.13 4.98 4.86 4.73 4.52 4.32 4.18 3.97 3.83 3.79 3.88 3.57 3.14 2.68 2.31 2.00 1.95 1.99 2.12
2.56 2.68 2.79 3.08 3.41 3.70 3.88 4.22 4.72 5.35 5.90 6.36 6.94 7.46 7.57 7.30 6.94 6.47 6.04 5.78 5.55 5.24 4.99 4.88 4.79 4.62 4.28 4.07 3.90 3.82 3.69 3.56 3.38 3.43 3.38 3.22 3.03 3.02 2.87 2.56 2.33 2.21 2.14
2.22 2.46 2.60 2.82 3.28 3.58 3.85 4.20 4.76 5.50 6.22 7.01 7.66 8.07 7.94 7.57 7.10 6.41 5.81 5.34 4.97 4.63 4.35 4.23 4.10 3.87 3.48 3.13 3.00 3.10 3.17 3.18 3.08 3.07 3.12 3.11 2.95 2.88 2.87 2.80 2.65 2.51 2.29
1.98 2.09 2.26 2.56 2.97 3.28 3.56 3.97 4.64 5.43 6.08 6.64 7.10 7.32 7.22 7.01 6.46 5.74 5.11 4.69 4.38 4.06 3.69 3.36 3.11 2.87 2.70 2.51 2.47 2.53 2.60 2.81 2.91 3.03 3.04 3.03 2.93 2.83 2.87 2.78 2.71 2.67 2.49
1.85 1.87 2.00 2.24 2.61 2.80 3.20 3.62 4.08 4.76 5.19 5.51 5.84 6.00 6.06 5.84 5.51 5.02 4.56 4.13 3.64 3.27 2.96 2.67 2.56 2.43 2.31 2.23 2.24 2.25 2.22 2.33 2.53 2.65 2.74 2.81 2.80 2.77 2.84 2.95 2.90 2.72 2.54
1.78 1.81 1.96 2.15 2.43 2.58 2.77 2.96 3.24 3.64 3.81 3.84 4.07 4.33 4.36 4.31 4.18 3.89 3.53 3.23 2.89 2.51 2.26 2.06 1.93 1.90 1.95 1.89 1.97 1.99 2.01 2.03 2.11 2.20 2.42 2.53 2.54 2.56 2.55 2.60 2.71 2.76 2.60
1.59 1.78 1.91 1.92 1.98 2.04 2.14 2.25 2.43 2.59 2.65 2.73 2.81 2.96 2.97 2.95 2.89 2.74 2.46 2.24 2.09 1.86 1.73 1.66 1.63 1.60 1.63 1.71 1.73 1.71 1.74 1.83 1.86 1.90 2.04 2.10 2.12 2.16 2.22 2.31 2.40 2.58 2.61
1.50 1.68 1.81 1.79 1.79 1.75 1.83 1.91 2.00 2.06 2.08 2.14 2.11 2.08 2.12 2.13 2.12 1.98 1.86 1.76 1.64 1.53 1.52 1.47 1.40 1.35 1.36 1.39 1.46 1.47 1.49 1.55 1.63 1.68 1.71 1.76 1.76 1.82 1.89 2.05 2.18 2.26 2.34
1.44 1.57 1.58 1.57 1.58 1.57 1.64 1.70 1.70 1.70 1.69 1.68 1.67 1.63 1.58 1.61 1.68 1.68 1.58 1.52 1.42 1.29 1.27 1.18 1.10 1.07 1.10 1.18 1.28 1.32 1.36 1.41 1.47 1.54 1.54 1.57 1.57 1.63 1.65 1.67 1.76 1.92 2.03
1.49 1.48 1.43 1.41 1.39 1.43 1.48 1.54 1.49 1.44 1.48 1.42 1.37 1.37 1.36 1.36 1.41 1.39 1.28 1.22 1.24 1.15 1.11 1.02 0.94 0.93 0.95 1.02 1.08 1.12 1.15 1.27 1.30 1.31 1.33 1.33 1.37 1.42 1.42 1.46 1.49 1.58 1.72
1.85 1.69 1.52 1.50 1.47 1.44 1.38 1.27 1.26 1.25 1.28 1.28 1.25 1.24 1.25 1.25 1.24 1.22 1.21 1.16 1.16 1.14 1.05 0.95 0.91 0.89 0.89 0.90 0.95 1.00 0.99 1.03 1.10 1.13 1.19 1.22 1.26 1.23 1.17 1.22 1.31 1.35 1.42
2.05 1.83 1.63 1.55 1.51 1.41 1.35 1.27 1.25 1.17 1.14 1.17 1.18 1.19 1.18 1.18 1.14 1.16 1.24 1.20 1.11 1.04 0.97 0.92 0.86 0.84 0.81 0.83 0.85 0.83 0.87 0.91 0.96 0.98 1.02 1.04 1.08 1.10 1.13 1.15 1.27 1.33 1.45
1.98 1.87 1.76 1.68 1.59 1.46 1.39 1.29 1.22 1.12 1.08 1.04 1.07 1.10 1.08 1.05 1.01 1.06 1.11 1.13 1.11 1.02 0.98 0.91 0.84 0.74 0.69 0.68 0.71 0.71 0.74 0.83 0.86 0.89 0.87 0.85 0.92 1.01 1.01 0.99 1.09 1.23 1.40
2.11 1.98 1.84 1.74 1.71 1.59 1.51 1.41 1.32 1.25 1.15 1.07 1.09 1.07 1.07 1.03 1.00 1.00 1.03 1.00 0.96 0.96 0.92 0.84 0.76 0.68 0.58 0.63 0.63 0.62 0.68 0.78 0.83 0.81 0.79 0.76 0.75 0.81 0.88 0.89 0.96 1.10 1.21
2.19 2.05 2.00 1.96 1.89 1.83 1.73 1.57 1.40 1.33 1.13 1.02 1.01 0.99 0.98 0.95 0.93 0.88 0.88 0.90 0.96 0.96 0.90 0.81 0.77 0.76 0.69 0.55 0.47 0.51 0.62 0.77 0.78 0.77 0.81 0.74 0.69 0.79 0.82 0.85 0.84 0.87 0.90
2.36 2.22 2.07 2.01 1.95 1.85 1.71 1.52 1.31 1.15 1.00 0.94 0.93 0.88 0.86 0.85 0.88 0.83 0.82 0.87 0.92 0.91 0.90 0.87 0.90 0.91 0.74 0.54 0.40 0.45 0.62 0.73 0.68 0.67 0.75 0.82 0.85 0.79 0.79 0.81 0.85 0.87 0.86
2.37 2.24 2.06 1.96 1.87 1.66 1.50 1.38 1.16 1.04 0.98 0.91 0.89 0.80 0.73 0.80 0.82 0.79 0.79 0.85 0.84 0.84 0.83 0.86 0.93 0.96 0.82 0.62 0.48 0.50 0.63 0.71 0.69 0.68 0.66 0.68 0.75 0.73 0.77 0.85 0.99 1.02 1.02
2.07 2.02 1.85 1.74 1.68 1.49 1.32 1.27 1.13 1.00 0.94 0.87 0.84 0.78 0.75 0.78 0.82 0.85 0.83 0.77 0.79 0.76 0.71 0.77 0.88 0.89 0.81 0.62 0.48 0.49 0.54 0.65 0.76 0.83 0.82 0.77 0.73 0.70 0.76 0.91 1.06 1.12 1.11
1.71 1.71 1.62 1.60 1.50 1.31 1.25 1.31 1.26 1.09 0.89 0.79 0.77 0.80 0.81 0.76 0.73 0.77 0.79 0.76 0.69 0.72 0.72 0.74 0.81 0.87 0.71 0.56 0.47 0.52 0.57 0.64 0.74 0.83 0.90 0.85 0.80 0.76 0.76 0.82 0.97 1.06 1.06
1.38 1.47 1.54 1.50 1.40 1.29 1.27 1.29 1.25 1.03 0.87 0.84 0.85 0.82 0.76 0.64 0.60 0.71 0.73 0.71 0.72 0.75 0.78 0.79 0.82 0.79 0.64 0.49 0.44 0.50 0.56 0.59 0.68 0.82 0.81 0.81 0.80 0.77 0.80 0.82 0.91 0.98 1.13
1.23 1.28 1.35 1.35 1.30 1.24 1.25 1.24 1.14 0.94 0.87 0.93 0.91 0.85 0.74 0.66 0.65 0.70 0.71 0.69 0.70 0.68 0.66 0.68 0.73 0.70 0.60 0.52 0.46 0.47 0.48 0.49 0.56 0.67 0.71 0.70 0.69 0.73 0.86 0.92 0.97 1.08 1.30
1.11 1.18 1.25 1.25 1.21 1.12 1.11 1.11 0.99 0.94 0.97 0.95 0.87 0.83 0.76 0.68 0.62 0.61 0.58 0.62 0.65 0.66 0.65 0.63 0.64 0.60 0.56 0.49 0.44 0.44 0.45 0.44 0.47 0.55 0.66 0.75 0.79 0.87 1.01 1.14 1.24 1.26 1.31
1.03 1.07 1.19 1.19 1.07 0.97 0.91 0.87 0.92 0.97 1.01 0.94 0.80 0.72 0.66 0.63 0.62 0.56 0.50 0.51 0.55 0.56 0.56 0.51 0.47 0.46 0.44 0.39 0.41 0.43 0.43 0.43 0.45 0.50 0.63 0.86 0.99 1.09 1.13 1.17 1.24 1.24 1.16
0.94 1.00 1.00 1.00 0.92 0.85 0.83 0.77 0.81 0.87 0.87 0.81 0.70 0.60 0.54 0.52 0.46 0.46 0.45 0.42 0.41 0.42 0.43 0.42 0.36 0.32 0.34 0.35 0.36 0.37 0.38 0.42 0.48 0.53 0.70 0.88 0.98 1.06 1.12 1.12 1.12 1.08 1.03